Showing default

IRIDIUM 114, 41923

Orbit data source: Space-Track

IRIDIUM 114, 41923 is a payload satellite owned by Iridium (US) in LEO that was launched on Sat, 14 Jan 2017 UTC via an FALCON 9 launch vehicle from the Air Force Western Test Range (AFWTR). Payloads include a variety of satellites, spacecraft, and rockets equipped with specific instruments for various scientific and technological missions. These include communications satellites like Starlink; space stations such as the ISS; scientific satellites like the Hubble; Earth observation satellites from companies like Planet Labs, Umbra, and HawkEye 360; GPS; miniature CubeSats for education and research; and military/defense satellites.

Loading next visibility...
IRIDIUM 114 details
Identifier
41923, 2017-003G
Orbit
LEO
Last TLE update8 hours ago
Origin
Flag of USIridium (US)
ManufacturerOATK SSG Gilbert
MissionOperational Commercial Communications
Bus & MotorELITEBUS, Unknown motor
Mass860 kg wet, 700 kg dry
Launch date (UTC)
2017-01-14 (8 years ago)
Launch vehicle
FALCON 9
Launch site
Air Force Western Test Range (AFWTR)
Object type
Payload
Rocket body
Debris
Shape & HBRTrap Box + 2 Pan, 9.4 m
Radar Cross Section14.423 m², Large (>1 m²)

Expand to show TLE details & history

TLE from 8 hours ago
0 IRIDIUM 114
1 41923U 17003G   24361.23094989  .00000836  00000-0  29132-3 0  9997
2 41923  86.3969 313.2363 0002016  79.9447 280.1976 14.34217775416142
Epoch: 2024-12-26T05:32Z
Definitive object data (Epoch: 2024-12-26T05:32:34.07Z)
Latitude-0.00004°
Longitude134.88102°
Altitude780.463 km
Speed7.464 km/s
True Right ascension20h 52m 56s
True Declination0° 00' 00"
Sunlit
Object was in daylight at TLE epoch
Visualization TLE readout
Latitude-41.13781°
Longitude131.6022°
Altitude794.234 km
Speed7.455 km/s
Apparent Right ascension22h 45m 05s
Apparent Declination-45° 26' 36"
Sunlit
Object is in daylight
Visualization observer readout
Local Sidereal Time13:05:09
Azimuth113.829° SE
Elevation-63.888°
Doppler factor1
Orbital elements
Apogee altitude776.074 km
Perigee altitude773.19 km
Semi-major axis7,152.769 km
Eccentricity0.0002016
Inclination86.3969°
RAAN313.2363°
Arg. of periapsis79.9447°
True anomaly280.17486°
Mean anomaly280.1976°
Eccentric anomaly280.18623°
Mean motion3.58783 °/min
BSTAR0.00029132
Orbital period100.34 mins
Loading maneuver chart data...
Loading historical data...
Loading historical data...
Loading historical data...
Loading historical data...
Loading historical data...
Loading historical data...
Loading historical data...

IRIDIUM 114 Visibility forecast

Observer location: undefined°, undefined

Span
Click to sort rows by Start time (UTC) header in descending order
Start Az.
Max El. time (UTC)
Max El. Az.
Max El.
End time (UTC)
End Az.
7 mins2024-12-26 20:44:25.982Z135.017° SSE2024-12-26 20:48:25.982Z74.953° E24.743°2024-12-26 20:51:25.982Z32.753° NE
7 mins2024-12-26 22:25:25.982Z227.33° WSW2024-12-26 22:28:25.982Z275.371° WNW27.384°2024-12-26 22:32:25.982Z336.84° NNW
8 mins2024-12-27 08:55:25.982Z7.824° NNE2024-12-27 08:59:25.982Z113.411° SE41.484°2024-12-27 09:03:25.982Z166.493° S
|